TimePST,TemperatureF,Dew PointF,Humidity,Sea Level PressureIn,VisibilityMPH,Wind Direction,Wind SpeedMPH,Gust SpeedMPH,PrecipitationIn,Events,Conditions,WindDirDegrees,DateUTC
12:56 AM,52.0,50.0,93,30.11,10.0,Calm,Calm,-,N/A,,Clear,0,1998-01-24 08:56:00
1:56 AM,50.0,48.9,96,30.11,10.0,Calm,Calm,-,N/A,,Clear,0,1998-01-24 09:56:00
2:56 AM,46.9,46.9,100,30.12,10.0,Calm,Calm,-,N/A,,Scattered Clouds,0,1998-01-24 10:56:00
3:56 AM,48.0,46.9,96,30.12,10.0,NW,3.5,-,N/A,,Mostly Cloudy,310,1998-01-24 11:56:00
4:56 AM,50.0,48.9,96,30.10,8.0,ENE,4.6,-,0.01,,Overcast,60,1998-01-24 12:56:00
5:56 AM,51.1,50.0,96,30.12,10.0,Calm,Calm,-,N/A,,Overcast,0,1998-01-24 13:56:00
6:56 AM,50.0,48.9,96,30.11,10.0,ESE,6.9,-,N/A,,Overcast,120,1998-01-24 14:56:00
7:56 AM,51.1,48.9,92,30.15,5.0,East,4.6,-,N/A,,Overcast,90,1998-01-24 15:56:00
8:56 AM,51.1,50.0,96,30.15,10.0,SE,4.6,-,N/A,,Overcast,140,1998-01-24 16:56:00
9:56 AM,52.0,50.0,93,30.17,9.0,East,4.6,-,N/A,,Overcast,80,1998-01-24 17:56:00
10:56 AM,53.1,50.0,89,30.16,9.0,East,8.1,-,N/A,,Scattered Clouds,80,1998-01-24 18:56:00
11:56 AM,54.0,51.1,90,30.13,9.0,East,11.5,-,N/A,,Scattered Clouds,80,1998-01-24 19:56:00
12:56 PM,55.9,52.0,87,30.12,9.0,NE,6.9,-,N/A,,Partly Cloudy,50,1998-01-24 20:56:00
1:56 PM,55.9,51.1,84,30.09,10.0,NE,3.5,-,N/A,,Scattered Clouds,50,1998-01-24 21:56:00
2:56 PM,60.1,50.0,69,30.09,10.0,NNW,6.9,-,N/A,,Partly Cloudy,340,1998-01-24 22:56:00
3:56 PM,60.1,53.1,78,30.10,10.0,West,11.5,-,N/A,,Scattered Clouds,280,1998-01-24 23:56:00
4:56 PM,57.0,52.0,83,30.12,10.0,West,11.5,-,N/A,,Mostly Cloudy,270,1998-01-25 00:56:00
5:56 PM,55.9,52.0,87,30.13,10.0,West,8.1,-,N/A,,Scattered Clouds,280,1998-01-25 01:56:00
6:56 PM,54.0,51.1,90,30.15,10.0,West,6.9,-,N/A,,Scattered Clouds,280,1998-01-25 02:56:00
7:56 PM,54.0,51.1,90,30.15,10.0,West,4.6,-,N/A,,Scattered Clouds,270,1998-01-25 03:56:00
8:56 PM,53.1,50.0,89,30.15,10.0,SSE,5.8,-,N/A,,Scattered Clouds,150,1998-01-25 04:56:00
9:56 PM,51.1,50.0,96,30.14,10.0,ESE,4.6,-,N/A,,Partly Cloudy,120,1998-01-25 05:56:00
10:56 PM,50.0,48.9,96,30.14,10.0,SE,6.9,-,N/A,,Partly Cloudy,140,1998-01-25 06:56:00
11:56 PM,51.1,48.9,92,30.13,10.0,SSE,3.5,-,N/A,,Partly Cloudy,160,1998-01-25 07:56:00